Regional Weather Roundup
Issued by NWS

Home | Current Version | Previous Version | Text Only | Print | Product List | Glossary On
Versions: 1 2 3 4 5 6 7 8 9 10 11 12 13 14 15 16 17 18 19 20 21 22 23 24 25 26 27 28 29 30 31 32 33 34 35 36 37 38 39 40 41 42 43 44 45 46 47 48 49 50
000
ASUS43 KDTX 211101
RWRMI
MICHIGAN HOURLY REGIONAL WEATHER ROUNDUP
NATIONAL WEATHER SERVICE DETROIT/PONTIAC MI
700 AM EDT MON APR 21 2014

NOTE: "FAIR" INDICATES FEW OR NO CLOUDS BELOW 12,000 FEET WITH NO
SIGNIFICANT WEATHER AND/OR OBSTRUCTION TO VISIBILITY.

MIZ047>049-052>055-059>063-066>070-074>076-081>083-211200-
SOUTHEAST LOWER MICHIGAN

CITY           SKY/WX    TMP DP  RH WIND       PRES   REMARKS
ADRIAN         CLEAR     41  37  86 CALM      30.04S
ALMA           CLOUDY    53  36  51 S7        29.98F
ANN ARBOR      CLEAR     38  34  85 SW3       30.04S
BAD AXE        MOCLDY    50  39  64 S5        30.00S
CARO           CLOUDY    57  37  46 CALM      30.00S
DETROIT CITY   CLEAR     46  33  60 CALM      30.04S
DETROIT        CLOUDY    44  38  79 S3        30.05S
FLINT          CLOUDY    52  36  54 S6        30.01F
GROSSE ILE     CLEAR     43  37  81 CALM      30.03S
HILLSDALE      PTCLDY    54  34  46 SW5       30.04S
HOWELL         CLOUDY    50  35  55 CALM      30.02S

CITY           SKY/WX    TMP DP  RH WIND       PRES   REMARKS
JACKSON        MOCLDY    47  36  65 CALM      30.03S
LAMBERTVILLE   CLEAR     41  37  87 CALM      30.05S
LANSING        CLOUDY    57  32  38 S6        30.01F
LAPEER         CLOUDY    47  40  75 CALM      30.02S
MASON          CLOUDY    49  39  68 CALM      30.01F
MONROE         CLEAR     39  37  93 CALM      30.03S
MT. CLEMENS    CLEAR     40  37  91 CALM      30.02F
PONTIAC        MOCLDY    46  35  65 CALM      30.02F
PORT HOPE        N/A     55  38  52 SW6       29.97S
PORT HURON     CLOUDY    39  37  93 CALM      30.03F
TRI CITIES     CLOUDY    56  39  53 S9        29.99F
TROY           PTCLDY    46  34  64 CALM      30.04F
SAGINAW HB     CLOUDY    54  37  54 S6        29.99S
YPSILANTI      CLEAR     44  34  67 CALM      30.04S
$$
MIZ043>046-050>051-056>058-064>065-071>073-077>080-211200-
SOUTHWEST LOWER MICHIGAN

CITY           SKY/WX    TMP DP  RH WIND       PRES   REMARKS
BATTLE CREEK   CLOUDY    56  34  43 SW6       30.02S
BENTON HARBOR  MOCLDY    58  37  45 S5        29.99F
BIG RAPIDS     MOCLDY    55  36  49 S5        29.95S
COLDWATER      MOCLDY    47  38  72 CALM      30.02F
FREMONT        FAIR      59  38  45 SW7       29.95F
HOLLAND        CLOUDY    64  40  41 SW12      29.99F
GRAND RAPIDS   CLOUDY    61  34  36 SW7       29.99S
IONIA          LGT RAIN  56  37  48 SW7       29.99S
KALAMAZOO      MOCLDY    54  36  50 S6        30.01F
LUDINGTON      CLOUDY    49  39  67 SW13      29.94S
MARSHALL       CLOUDY    53  36  52 S3        30.02S
MOUNT PLEASANT CLOUDY    57  36  45 SE5       29.96F
MUSKEGON       CLOUDY    59  38  45 SW15      29.97S
SOUTH HAVEN    CLOUDY    59  36  41 S3        29.99F
$$
MIZ016>042-211200-
NORTHERN LOWER MICHIGAN

CITY           SKY/WX    TMP DP  RH WIND       PRES   REMARKS
ALPENA         CLOUDY    44  37  76 CALM      29.96F
BEAVER ISLAND  CLOUDY    40  39  97 CALM      29.93F FOG
BELLAIRE       CLOUDY    45  43  93 CALM      29.93S
CADILLAC       PTCLDY    51  39  63 S6        29.93F
CHARLEVOIX     PTCLDY    44  43  94 SE3       29.95F FOG
FRANKFORT      CLOUDY    54  38  54 CALM      29.92F
GAYLORD        CLOUDY    47  44  90 CALM      29.94F
GRAYLING       CLOUDY    48  44  87 CALM      29.94F
HARBOR SPRINGS MOCLDY    44  43  95 NE7       29.93F
HOUGHTON LAKE  PTCLDY    57  35  43 S5        29.94F
MANISTEE       CLOUDY    48  39  71 E5        29.93F
OSCODA         CLOUDY    49  43  81 MISG      29.96F
PELLSTON       CLOUDY    43  40  89 CALM      29.95F FOG
ROGERS CITY    MOCLDY    44  40  86 S8        29.97F
TRAVERSE CITY  MOCLDY    45  37  73 NW3       29.91F
$$
MIZ007>008-015-211200-
EASTERN UPPER MICHIGAN

CITY           SKY/WX    TMP DP  RH WIND       PRES   REMARKS
KINROSS        CLOUDY    36  36 100 E5        29.95F VSB 1/2 WCI  32
MACKINAC ISLAN CLOUDY    36  36 100 E6        29.95S FOG     WCI  32
NEWBERRY       FOG       32  32 100 E5        29.94S VSB<1/4 WCI  28
S. S. MARIE    FOG       38  37  97 E3        29.95F VSB<1/4
$$
MIZ004>006-011>014-085-211200-
CENTRAL UPPER MICHIGAN

CITY           SKY/WX    TMP DP  RH WIND       PRES   REMARKS
MANISTIQUE     SNOW      35  35  99 CALM      29.94S VSB<1/4
ESCANABA       CLOUDY    37  36  93 CALM      29.94R VSB 1/4
MENOMINEE      CLOUDY    41  39  93 CALM      29.93R
SAWYER-GWINN   CLEAR     32  32 100 CALM      29.92F
$$
MIZ001>003-009>011-084-211200-
WESTERN UPPER MICHIGAN

CITY           SKY/WX    TMP DP  RH WIND       PRES   REMARKS
IRON MOUNTAIN  FOG       37  37 100 CALM      29.91S VSB 3/4
HOUGHTON       PTCLDY    36  25  64 CALM      29.89F
COPPER HARBOR    N/A     32  29  88 SW5       29.90F WCI  27
IRONWOOD       MOCLDY    32  27  80 CALM      29.86F
$$

ABBREVIATIONS USED IN REMARKS
   TC - TEMPERATURE IN CELSIUS
  WCI - WIND CHILL INDEX
   HX - HEAT INDEX
  VSB - VISIBILITY




USA.gov is the U.S. government's official web portal to all federal, state and local government web resources and services.